Terminal Aerodrome Forecast
Issued by NWS Cleveland, OH

Home | Current Version | Previous Version | Text Only | Print | Product List | Glossary Off
Versions: 1 2 3 4 5 6 7 8 9 10 11 12 13 14 15 16 17 18 19 20 21 22 23

000
FTUS41 KCLE 161700
TAFCAK
TAF
KCAK 161736Z 1618/1718 21012KT 6SM -SHRA BR OVC008
      TEMPO 1618/1620 3SM -RA BR OVC012
     FM162000 21010G20KT 4SM BR VCSH OVC012
     FM170200 24011G22KT 6SM BR OVC008
     FM170800 26012G25KT P6SM OVC012
     FM171600 26012G25KT P6SM BKN015 OVC030=

USA.gov is the U.S. government's official web portal to all federal, state and local government web resources and services.